Home > Weather > Faridkot > Past weeks

Flag for India Past Weather in Faridkot, Punjab, India — Yesterday and Last 2 Weeks

Now
93 °F

Passing clouds.


Feels Like: 107 °F
Forecast: 80 / 92 °F
Wind: 3 mph from Northeast

Location: Lahore Airport

Current Time: Aug 26, 2016 at 2:12:00 PM

Latest Report: Aug 26, 2016 at 12:55 PM


Visibility: 4 mi

Pressure: 29.74 "Hg

Humidity: 59%

Dew Point: 77 °F

Location of FaridkotLocation

Past Weather in Faridkot — Graph

°F

Faridkot Temperature Yesterday

Maximum temperature yesterday: 77 °F (at 11:55 AM)
Minimum temperature yesterday: 72 °F (at 7:25 AM)
Average temperature yesterday: 75 °F

High & Low Weather Summary for the Past Weeks

 TemperatureHumidityPressure
High100 °F (Aug 15, 3:25 PM)100% (Aug 12, 6:30 AM)29.80 "Hg (Aug 12, 6:30 AM)
Low72 °F (Aug 25, 7:25 AM)26% (Aug 21, 5:29 PM)29.42 "Hg (Aug 16, 5:55 PM)
Average86 °F72%29.59 "Hg
* Reported Aug 11 12:55 PM — Aug 26 12:55 PM, Faridkot, Weather by CustomWeather, © 2016

Note: Actual official high and low records may vary slightly from our data, if they occured in-between our weather recording intervals... More about our weather records

Advertising

Faridkot Weather History for the Previous 24 Hours

Scroll right to see more
 ConditionsComfort  
Time TempWeatherWind HumidityBarometerVisibility
12:55 PM
Fri, Aug 26
93 °FPassing clouds.3 mph59%29.74 "Hg4 mi
12:25 PM93 °FPassing clouds.5 mph59%29.77 "Hg4 mi
11:55 AM91 °FClear.5 mph63%29.77 "Hg4 mi
11:25 AM91 °FClear.N/A63%29.77 "HgN/A
10:55 AM90 °FClear.7 mph63%29.77 "Hg3 mi
10:25 AM90 °FClear.6 mph63%29.77 "Hg3 mi
9:55 AM88 °FClear.6 mph66%29.77 "Hg3 mi
9:25 AM88 °FClear.5 mph66%29.77 "Hg2 mi
8:55 AM84 °FPassing clouds.6 mph79%29.74 "Hg2 mi
8:25 AM84 °FScattered clouds.3 mph79%29.74 "Hg2 mi
7:55 AM81 °FScattered clouds.No wind84%29.74 "Hg2 mi
7:25 AM79 °FFog.No wind89%29.74 "Hg1 mi
6:55 AM77 °FFog.No wind94%29.74 "Hg1 mi
6:25 AM77 °FFog.No wind94%29.74 "Hg2 mi
5:25 AM75 °FPassing clouds.No wind89%29.71 "Hg2 mi
4:55 AM75 °FPassing clouds.No wind94%29.53 "Hg2 mi
4:25 AM75 °FPassing clouds.No wind94%29.68 "Hg2 mi
3:55 AM75 °FPassing clouds.No wind94%29.68 "Hg2 mi
3:25 AM75 °FPassing clouds.No wind94%29.68 "Hg2 mi
2:55 AM75 °FPassing clouds.No wind94%29.71 "Hg2 mi
2:25 AM75 °FPassing clouds.No wind94%29.71 "Hg2 mi
1:55 AM75 °FPassing clouds.No wind94%29.71 "Hg2 mi
1:25 AM75 °FPassing clouds.3 mph94%29.71 "Hg2 mi
12:25 AM75 °FPassing clouds.3 mph94%29.71 "Hg2 mi
11:25 PM
Thu, Aug 25
77 °FPassing clouds.No wind94%29.71 "Hg2 mi
10:25 PM77 °FPassing clouds.3 mph94%29.71 "Hg3 mi
9:25 PM77 °FPassing clouds.No wind94%29.71 "Hg3 mi
8:25 PM77 °FPassing clouds.No wind94%29.68 "Hg3 mi
7:59 PM77 °FPartly cloudy.5 mph94%29.68 "Hg3 mi
7:25 PM77 °FPartly cloudy.6 mph94%29.68 "Hg3 mi
6:59 PM77 °FBroken clouds.8 mph94%29.68 "Hg2 mi
6:29 PM77 °FBroken clouds.10 mph94%29.71 "Hg2 mi
5:59 PM77 °FBroken clouds.10 mph94%29.71 "Hg2 mi
5:29 PM77 °FBroken clouds.7 mph94%29.68 "Hg2 mi
4:55 PM77 °FBroken clouds.8 mph94%29.68 "Hg2 mi
4:29 PM77 °FRain. Broken clouds.8 mph94%29.71 "Hg2 mi
3:59 PM77 °FRain. Mostly cloudy.5 mph94%29.71 "Hg2 mi
3:29 PM77 °FRain. Mostly cloudy.5 mph94%29.74 "Hg2 mi
2:55 PM77 °FBroken clouds.7 mph94%29.74 "Hg3 mi
2:25 PM77 °FRain. Broken clouds.7 mph94%29.74 "Hg3 mi
Weather by CustomWeather, © 2016

See weather overviewHow to use our weather pages